Volver al catálogo

DELTA 1 DEB

ActivoSSO
NORAD 12542·DEBRIS·🇺🇸 United States

Lanzado Jul 29, 1976 desde Vandenberg Space Force Base

Loading…

Próximos Pases (próximas 24 horas)

TLE

ActualizadoSource: Space-Track

Época: Sep 13, 2026, 21:49 UTC

1 12542U 76077DX  26256.90923199  .00000036  00000-0  51885-3 0  9993
2 12542 101.9598 241.2757 0060403 114.1233 302.1866 12.52410635 89197

Sigue DELTA 1 DEB en tiempo real con AllMySat

Download on the App Store